Wind_Speed
38 38 36 36 36 33 35 29 25 26 25 26 26 25 24 21 20 18 19 19 19 19 19 19 18 18 18 18 17 16 15 15 15 15 15 14 15 15 14 15 16 16 17
37 37 36 34 33 30 28 27 27 27 27 26 27 26 26 24 23 21 21 21 20 20 21 21 21 21 20 20 19 19 18 17 16 16 16 18 17 16 17 18 19 18 19
38 35 32 29 27 27 27 27 28 28 26 25 26 26 26 25 24 23 23 23 23 23 23 23 22 23 23 22 22 22 22 21 20 20 19 20 20 20 20 21 22 21 22
32 30 27 26 26 27 27 28 28 27 25 24 24 25 25 25 24 24 23 23 23 23 23 23 23 23 24 24 25 25 26 25 25 25 24 24 23 23 25 24 26 22 24
28 27 28 28 28 29 29 28 27 26 25 23 22 23 23 24 23 23 22 22 21 21 21 21 22 22 22 23 23 24 25 26 26 26 26 27 26 27 27 27 28 26 28
32 31 31 31 32 31 31 29 28 27 26 24 22 22 22 22 22 22 22 22 21 21 21 20 20 18 18 17 17 17 17 17 17 17 18 19 19 20 22 22 21 21 23
37 37 38 38 36 34 32 30 29 27 26 24 23 23 23 23 22 22 22 21 20 18 17 16 15 15 15 15 16 16 16 17 18 19 20 21 22 24 26 27 28 27 26
37 38 39 39 38 35 32 30 28 27 26 25 24 24 23 23 22 21 19 18 17 16 16 16 16 16 17 18 18 19 20 21 22 24 25 27 28 30 32 33 34 34 35
42 42 41 39 38 35 33 30 28 27 26 25 24 23 22 21 20 19 18 17 17 17 17 17 18 19 20 21 22 23 24 26 27 29 30 32 34 35 36 38 39 39 40
38 40 42 38 36 33 31 29 28 26 25 25 23 22 21 21 20 19 19 19 19 19 20 20 21 22 23 25 26 27 29 30 32 34 35 36 37 38 39 40 42 43 45
37 37 37 36 34 32 31 29 28 26 25 24 23 22 22 21 20 20 20 20 21 22 23 24 25 26 28 29 30 32 33 35 36 37 38 39 40 42 43 43 45 46 48
32 31 31 32 32 31 30 29 27 26 25 24 23 23 22 22 21 21 22 22 23 24 26 27 29 30 32 33 35 36 37 38 39 40 41 42 43 44 45 45 46 48 50
31 31 30 31 30 30 29 28 27 26 25 25 24 24 23 23 23 23 23 24 25 27 29 30 32 34 36 37 38 39 39 40 41 42 42 43 44 45 46 47 48 49 51
25 27 28 28 29 29 29 28 27 26 26 25 24 24 23 23 23 24 25 26 28 30 32 33 35 37 38 39 39 40 41 41 42 43 44 45 46 46 47 49 50 51 52
19 23 26 27 29 29 28 28 27 26 25 24 24 23 22 22 24 26 28 30 32 34 35 36 37 38 39 41 42 43 43 44 44 45 46 47 48 48 49 50 50 52 53
27 27 28 29 30 30 30 30 29 28 27 27 27 26 27 25 25 27 29 31 32 34 35 37 38 40 41 42 44 46 46 46 47 46 47 48 48 49 49 50 51 52 53
28 30 32 33 36 36 33 29 27 25 23 23 21 20 22 25 27 29 31 33 35 36 37 38 39 40 41 44 45 47 49 49 49 49 50 50 50 50 50 50 51 53 53
33 34 35 32 27 24 23 22 21 21 18 16 19 22 24 27 29 32 34 35 36 38 39 41 42 44 44 46 48 50 52 53 52 51 51 51 51 51 52 52 52 53 55
31 27 24 23 22 21 21 20 17 14 16 20 22 24 26 29 31 33 36 38 39 41 43 45 46 47 47 48 50 52 54 55 55 54 55 54 53 50 50 52 52 51 52
26 23 22 21 21 20 16 11 14 17 19 20 23 26 28 31 34 36 39 41 43 45 46 47 49 51 51 51 52 53 56 58 56 56 55 54 53 52 49 49 50 52 50
24 22 20 20 17 12 11 16 17 17 19 22 25 29 32 34 37 40 41 44 46 49 51 52 53 53 53 53 52 51 54 55 56 56 53 51 49 48 47 46 46 48 45
22 21 18 12 9 12 13 14 16 19 22 25 29 32 34 37 40 43 45 48 50 52 54 55 56 55 54 54 53 51 51 51 53 53 52 49 47 46 44 44 44 42 40
19 13 11 10 9 10 12 15 18 21 24 27 31 34 38 41 44 46 48 50 51 52 54 55 55 55 54 54 53 51 49 48 49 49 48 47 45 43 42 41 39 37 33
14 10 7 5 8 11 14 17 20 24 27 31 34 37 39 42 44 47 49 50 52 52 53 53 53 53 52 52 51 49 47 46 46 44 44 43 41 39 39 38 37 35 36
8 5 4 7 9 12 15 19 23 27 30 33 36 39 41 43 44 46 47 48 48 48 47 46 46 46 46 44 41 40 39 37 35 35 35 33 32 34 33 33 32 34 37
5 3 4 7 10 14 18 21 24 27 30 33 35 37 39 41 42 43 41 39 39 39 38 38 38 38 38 37 36 35 35 36 34 32 35 38 38 38 36 35 29 32 37
Wind_Direction
222 227 227 230 236 241 246 253 257 263 265 266 262 254 249 246 241 236 236 235 234 236 239 240 241 243 246 247 247 247 246 241 243 246 250 248 253 257 261 260 259 259 259
229 230 233 236 243 249 252 257 261 263 265 263 259 251 246 244 243 239 237 238 239 239 241 244 246 248 250 253 253 255 256 255 252 254 258 263 257 261 261 261 262 263 262
234 236 238 244 250 254 254 256 258 262 261 259 256 249 244 242 242 242 241 239 241 242 243 245 248 252 256 259 261 262 262 261 260 258 258 259 265 265 264 266 263 265 265
238 239 243 249 253 256 257 257 259 259 257 254 251 246 242 242 242 245 246 246 245 246 248 251 252 254 256 259 262 265 266 266 266 265 263 263 262 263 266 264 267 268 269
235 240 246 251 256 257 257 256 256 254 251 248 244 242 238 238 240 242 245 246 248 251 253 255 257 260 261 260 259 258 259 261 262 264 265 265 264 263 261 262 269 264 265
242 245 248 253 256 256 254 253 251 248 245 243 241 239 240 239 239 241 246 249 253 256 258 259 258 257 256 255 254 254 254 256 258 259 263 266 267 268 269 267 265 262 264
241 247 250 252 253 252 251 248 245 242 241 239 238 239 240 243 245 247 250 252 253 251 249 249 248 249 251 253 256 259 261 264 267 270 272 274 276 276 278 278 276 272 269
237 239 243 245 246 245 245 244 241 238 237 237 237 236 238 241 243 244 243 242 242 243 244 246 249 253 257 260 264 267 270 272 274 276 277 279 281 281 281 281 281 279 278
237 238 240 239 239 239 239 238 237 235 235 234 235 235 235 235 236 237 239 239 241 243 247 251 256 260 264 267 270 273 275 277 278 280 281 282 283 283 283 284 284 283 281
238 238 237 234 234 235 236 235 235 232 231 231 232 233 233 234 234 235 237 242 248 253 257 261 265 268 270 273 275 278 279 281 282 283 284 284 284 283 283 284 284 284 284
238 238 235 230 229 229 230 231 231 230 231 231 230 230 230 232 235 240 245 250 256 261 265 268 272 274 277 279 280 281 282 283 284 284 284 284 284 284 284 284 284 284 284
239 237 232 226 225 227 228 227 228 228 228 229 228 228 231 235 240 246 251 257 262 266 270 274 277 279 281 283 284 284 284 284 284 284 284 284 284 284 285 285 285 285 285
238 234 228 224 224 225 225 226 226 227 226 226 227 230 235 240 246 252 258 264 269 273 277 280 282 283 284 284 284 284 284 284 284 284 284 284 284 284 284 284 284 284 284
237 231 228 223 221 222 223 224 223 223 224 226 230 234 239 245 252 258 265 270 274 278 280 282 283 284 285 285 285 285 285 285 285 285 285 285 285 284 284 284 284 284 284
234 229 225 223 222 222 222 222 222 223 225 229 233 238 243 249 256 263 270 276 279 281 283 284 285 285 286 286 286 286 286 286 286 286 286 286 286 286 285 285 284 284 284
216 227 222 219 219 218 218 218 217 218 221 226 234 245 254 262 272 274 274 277 280 283 284 285 286 288 288 289 289 289 288 288 288 287 286 286 285 285 285 285 285 285 285
221 221 218 213 213 214 217 220 225 231 237 243 250 262 269 271 275 279 282 284 285 286 287 288 289 289 289 289 289 289 289 288 288 288 287 287 287 286 285 285 285 285 285
221 218 218 216 217 217 217 220 225 232 241 257 263 268 274 278 281 284 286 288 289 289 290 290 290 290 290 290 289 289 289 289 289 289 288 287 287 287 286 286 285 284 284
218 211 208 208 210 213 214 218 227 243 255 262 267 274 280 285 288 289 289 290 291 291 291 291 291 291 291 290 290 289 289 288 288 288 288 287 287 287 286 286 285 283 282
196 197 198 201 205 208 211 226 245 252 261 272 281 286 288 288 289 289 290 291 292 292 292 292 292 291 291 290 289 289 289 288 288 288 288 288 289 288 285 283 283 282 282
186 187 188 193 196 205 227 243 254 268 280 286 288 288 289 290 291 292 293 293 293 293 292 292 292 292 291 291 290 289 289 289 289 288 289 288 287 286 284 283 281 281 282
174 179 181 183 202 224 243 264 279 287 290 290 291 292 293 294 295 295 294 294 294 294 294 293 293 293 292 291 289 288 286 286 287 287 287 286 284 283 282 280 280 280 280
169 165 172 193 222 253 273 283 289 291 291 292 294 295 296 296 296 295 295 295 294 294 294 293 293 293 292 291 289 289 288 286 285 285 285 285 286 286 283 281 280 277 270
156 169 194 233 268 280 287 291 293 295 297 298 298 298 298 298 298 298 298 298 298 298 298 297 297 296 295 294 293 291 288 285 284 285 284 286 285 284 283 280 278 272 270
162 187 239 267 280 289 295 298 300 302 303 304 303 302 301 300 300 300 300 300 300 300 301 300 299 299 298 298 298 296 294 292 293 294 295 290 282 276 273 274 277 273 273
176 221 268 288 299 305 306 307 307 305 304 303 303 303 302 301 301 302 302 303 303 303 303 302 302 303 303 303 301 297 292 289 288 287 275 269 273 278 281 281 281 282 279
Height
3102 3106 3109 3113 3116 3117 3120 3121 3123 3126 3126 3127 3127 3128 3130 3132 3133 3135 3136 3138 3139 3141 3142 3144 3145 3146 3148 3149 3150 3151 3151 3153 3154 3154 3155 3155 3155 3156 3156 3157 3157 3158 3158
3097 3102 3105 3107 3110 3112 3114 3117 3119 3121 3121 3122 3122 3123 3125 3126 3128 3130 3133 3134 3136 3138 3139 3140 3142 3143 3144 3145 3146 3147 3147 3149 3150 3150 3150 3150 3152 3152 3153 3153 3153 3154 3154
3093 3096 3099 3103 3105 3107 3109 3112 3114 3115 3116 3116 3117 3118 3120 3121 3123 3125 3128 3130 3131 3133 3134 3136 3137 3138 3139 3140 3141 3142 3143 3144 3145 3146 3147 3147 3147 3147 3148 3148 3148 3150 3150
3088 3092 3094 3097 3100 3102 3104 3106 3108 3109 3110 3111 3112 3113 3115 3116 3118 3120 3122 3124 3125 3127 3129 3130 3132 3133 3134 3135 3136 3136 3137 3138 3139 3140 3141 3141 3142 3143 3143 3144 3143 3146 3145
3082 3086 3089 3091 3094 3096 3098 3100 3102 3103 3105 3106 3107 3108 3110 3112 3113 3115 3117 3118 3120 3121 3123 3125 3126 3126 3127 3128 3130 3130 3131 3132 3132 3133 3133 3134 3135 3136 3137 3138 3138 3140 3139
3075 3078 3082 3084 3087 3089 3091 3094 3095 3097 3099 3101 3102 3104 3106 3107 3109 3110 3112 3113 3115 3116 3118 3119 3120 3121 3122 3123 3124 3125 3125 3126 3127 3127 3128 3128 3129 3129 3129 3130 3132 3133 3132
3067 3071 3074 3076 3079 3082 3085 3087 3089 3091 3093 3096 3097 3099 3101 3103 3105 3106 3107 3109 3110 3112 3113 3114 3115 3116 3117 3119 3119 3120 3120 3121 3121 3122 3122 3122 3122 3123 3122 3123 3124 3125 3127
3058 3061 3064 3067 3071 3075 3078 3081 3084 3086 3088 3091 3092 3094 3096 3098 3100 3101 3103 3104 3106 3107 3108 3110 3111 3112 3113 3114 3114 3115 3115 3115 3116 3116 3116 3115 3115 3115 3115 3114 3115 3116 3116
3050 3052 3055 3059 3063 3067 3071 3074 3078 3080 3083 3085 3087 3089 3091 3093 3095 3097 3099 3100 3101 3103 3104 3105 3106 3107 3108 3108 3109 3109 3109 3109 3109 3108 3108 3108 3107 3106 3106 3105 3104 3104 3104
3041 3044 3047 3051 3056 3061 3065 3069 3072 3075 3077 3080 3082 3085 3087 3089 3091 3093 3094 3096 3097 3098 3099 3100 3101 3101 3102 3102 3102 3102 3101 3101 3101 3100 3099 3099 3098 3097 3096 3095 3094 3093 3092
3034 3037 3041 3045 3050 3054 3059 3063 3066 3069 3072 3075 3077 3080 3082 3084 3086 3088 3090 3091 3092 3092 3093 3093 3094 3094 3094 3094 3094 3094 3093 3092 3092 3091 3090 3089 3088 3086 3085 3085 3083 3082 3080
3030 3033 3036 3040 3044 3049 3053 3058 3061 3064 3067 3070 3073 3075 3078 3080 3082 3083 3084 3085 3086 3087 3087 3087 3087 3087 3087 3086 3086 3085 3084 3083 3082 3081 3080 3078 3077 3075 3074 3072 3071 3069 3067
3024 3027 3031 3035 3040 3045 3049 3053 3056 3059 3063 3065 3068 3071 3073 3075 3077 3078 3079 3080 3080 3080 3080 3080 3079 3078 3078 3077 3076 3075 3074 3073 3072 3071 3069 3068 3066 3065 3063 3061 3059 3056 3055
3019 3023 3027 3031 3035 3040 3044 3047 3051 3054 3057 3060 3063 3066 3068 3070 3072 3073 3073 3073 3074 3073 3073 3072 3071 3070 3068 3067 3066 3065 3064 3063 3061 3060 3058 3056 3054 3053 3051 3048 3046 3043 3041
3016 3019 3023 3027 3031 3035 3039 3043 3046 3050 3053 3056 3058 3060 3062 3063 3065 3066 3066 3066 3066 3066 3065 3063 3062 3061 3059 3057 3056 3054 3053 3051 3050 3048 3046 3044 3042 3039 3037 3035 3033 3031 3028
3009 3013 3017 3021 3025 3029 3033 3037 3040 3043 3046 3049 3051 3054 3057 3057 3058 3059 3059 3059 3058 3057 3056 3055 3053 3051 3049 3047 3044 3042 3040 3039 3037 3036 3034 3031 3029 3026 3024 3022 3019 3017 3014
3004 3007 3011 3014 3018 3021 3026 3031 3036 3040 3043 3046 3047 3049 3051 3052 3052 3051 3051 3050 3049 3048 3046 3045 3043 3041 3039 3036 3033 3030 3027 3026 3024 3022 3020 3018 3015 3013 3011 3009 3006 3002 3000
2997 3001 3005 3011 3017 3022 3026 3029 3033 3036 3039 3042 3044 3045 3045 3044 3044 3043 3042 3040 3039 3037 3036 3034 3032 3030 3028 3025 3021 3018 3014 3011 3010 3008 3006 3003 3001 2999 2995 2993 2991 2988 2985
2995 3000 3006 3010 3015 3019 3023 3027 3030 3033 3036 3038 3038 3038 3037 3036 3035 3034 3032 3030 3029 3027 3024 3022 3019 3017 3016 3013 3009 3005 3001 2997 2995 2993 2990 2988 2986 2984 2981 2977 2975 2974 2971
2993 2999 3004 3009 3013 3017 3020 3023 3027 3030 3031 3032 3031 3030 3029 3028 3027 3025 3023 3021 3018 3015 3012 3009 3006 3003 3001 2999 2995 2990 2984 2980 2979 2977 2974 2972 2970 2967 2966 2963 2960 2956 2957
2992 2998 3004 3008 3011 3014 3018 3022 3024 3025 3025 3024 3024 3023 3021 3020 3017 3015 3012 3009 3006 3002 2999 2995 2992 2989 2985 2982 2979 2975 2969 2965 2962 2960 2959 2958 2956 2954 2951 2949 2946 2944 2944
2993 2999 3003 3006 3010 3013 3016 3017 3018 3018 3019 3018 3017 3015 3013 3010 3007 3003 3000 2996 2992 2988 2984 2979 2976 2973 2969 2966 2963 2960 2957 2953 2949 2946 2945 2943 2942 2940 2939 2937 2935 2934 2932
2994 2998 3002 3006 3008 3010 3011 3012 3013 3013 3013 3011 3009 3006 3003 2999 2995 2991 2987 2983 2979 2974 2970 2965 2962 2958 2954 2950 2947 2945 2942 2940 2936 2933 2931 2928 2927 2926 2924 2924 2923 2922 2921
2993 2997 3000 3002 3004 3006 3007 3008 3008 3007 3005 3003 3000 2997 2993 2988 2983 2978 2973 2968 2963 2959 2954 2950 2946 2941 2938 2933 2931 2929 2927 2925 2922 2921 2918 2917 2916 2914 2912 2911 2910 2909 2909
2992 2995 2998 3000 3002 3003 3003 3003 3001 2999 2996 2992 2988 2985 2980 2976 2971 2966 2962 2957 2952 2946 2941 2937 2932 2928 2924 2922 2919 2916 2913 2911 2910 2908 2906 2906 2904 2901 2900 2899 2899 2899 2898
2991 2994 2996 2997 2998 2998 2998 2996 2994 2991 2988 2985 2981 2976 2971 2966 2961 2956 2953 2949 2942 2937 2933 2927 2922 2918 2915 2911 2909 2906 2903 2901 2900 2898 2896 2894 2892 2891 2890 2889 2888 2887 2886